Location: Newark
(35.2672°N, 80.7344°W)
Time: 14:57:20
(UTC+00:00)

Vanguard 2 Rocket - Pass Details

Date: 27 January 2020
Orbit: 554 x 3326 km, 32.9° (Epoch: 16 February)

Event Time Altitude Azimuth Distance (km) Brightness Sun altitude
Rises 07:31:32 0° 205° (SSW) 2,949 - -59.4°
Reaches altitude 10° 07:35:46 10° 166° (SSE) 1,842 - -58.6°
Maximum altitude 07:36:43 11° 151° (SSE) 1,779 - -58.4°
Drops below altitude 10° 07:37:40 10° 137° (SE) 1,817 - -58.3°
Sets 07:41:42 0° 97° (E) 2,803 - -57.5°
